Lid_Strength_Index
8 10 13 12 11 11 12 13 13 11 10 11 12 12 9 8 8 8 7 6 6 5 4 3 3 3 3 3 3 3 3 3 2 3 3 3 2 2 1 0 0 0 0 0
11 12 9 9 9 10 11 13 13 11 10 11 12 12 11 9 8 8 7 7 6 6 5 4 4 4 3 3 3 3 3 3 2 2 2 2 2 2 2 0 0 0 0 0
12 10 8 9 10 10 11 12 12 12 11 11 12 13 12 8 7 7 7 7 6 6 6 6 5 4 4 4 3 3 3 3 2 2 2 3 3 2 2 2 2 2 0 0
12 9 9 10 9 10 13 10 10 12 13 15 13 17 14 11 10 8 8 7 7 7 7 7 6 6 4 4 4 3 2 3 2 2 3 4 4 4 3 3 1 1 1 1
11 10 10 10 10 10 11 10 11 11 14 15 14 16 14 11 12 11 9 7 7 8 7 8 7 6 5 5 5 3 3 3 3 3 3 4 4 3 3 3 4 4 3 2
10 9 9 10 9 10 10 10 11 12 14 16 14 15 15 13 11 10 8 7 7 6 9 8 6 6 7 5 3 3 3 3 3 3 3 4 5 5 5 5 5 5 5 4
10 10 10 9 12 10 11 13 17 17 18 18 13 15 14 10 9 8 8 7 7 8 9 8 8 7 6 5 4 3 4 4 4 3 4 4 5 5 5 6 6 6 6 5
14 14 11 9 11 12 13 14 17 20 20 17 13 17 14 9 7 7 7 9 8 9 9 9 8 7 6 5 5 4 4 4 4 4 5 5 5 5 6 6 6 6 6 6
13 12 10 9 10 10 12 13 12 15 15 17 15 13 10 9 9 8 9 8 9 9 9 8 7 7 5 5 5 4 5 5 5 5 5 6 6 7 7 7 6 6 6 6
10 14 10 10 10 11 10 9 14 15 20 21 17 16 15 12 10 9 9 8 9 9 9 8 8 6 5 5 4 4 5 6 6 6 7 7 8 8 7 7 8 8 8 9
11 13 12 11 12 13 13 14 13 13 15 19 20 16 11 10 9 9 9 8 9 10 9 8 6 5 5 5 5 5 6 7 8 8 8 9 8 7 8 8 8 9 9 9
11 13 15 12 11 10 12 13 12 16 16 17 17 16 10 9 9 9 9 9 10 10 9 7 6 5 5 6 6 6 7 8 8 9 9 9 8 8 10 10 10 10 10 9
10 15 17 15 14 11 12 12 12 13 14 16 19 16 8 8 9 9 9 10 9 8 8 6 6 6 6 7 7 8 8 9 9 9 9 9 9 10 11 11 10 10 9 9
8 14 15 16 15 12 13 11 11 13 16 15 15 13 11 10 9 10 10 9 9 8 6 6 6 7 8 8 9 9 10 9 9 9 9 10 11 11 11 10 9 9 9 9
11 14 13 13 11 10 11 11 11 13 13 15 13 13 11 9 10 10 9 9 7 7 6 6 7 8 9 10 10 10 10 10 10 10 11 11 12 11 10 9 9 9 10 10
12 14 13 13 10 11 12 10 10 11 11 12 12 13 10 9 8 9 8 7 8 6 6 7 8 9 10 11 11 10 10 10 10 12 13 12 11 10 10 10 10 10 10 10
11 12 13 15 11 12 15 12 10 11 11 11 13 11 9 10 9 10 9 8 7 7 7 8 9 10 11 11 11 11 10 10 12 13 12 11 11 11 10 10 10 11 11 11
12 12 12 15 13 19 12 8 9 11 10 9 10 9 9 9 9 9 8 8 7 7 8 9 10 12 12 11 11 10 10 11 12 12 12 11 11 11 11 11 11 11 11 11
11 12 14 16 16 13 11 10 10 11 12 9 10 9 9 8 9 8 7 7 8 9 9 10 11 12 11 11 10 10 11 12 13 13 12 12 12 12 11 12 12 11 11 11
10 11 14 16 17 18 12 8 7 8 15 8 9 9 10 10 13 11 7 8 8 9 9 10 12 11 11 11 10 11 12 13 13 13 12 12 12 12 12 12 11 11 10 11
13 12 14 15 16 14 9 7 6 15 13 8 9 10 10 11 10 8 7 8 8 9 10 11 11 11 11 11 11 12 12 14 13 12 12 12 12 12 12 11 11 11 11 11
14 15 15 14 16 17 7 8 11 9 8 8 9 9 9 9 7 7 7 8 9 10 11 11 11 11 10 10 11 11 12 13 13 12 12 12 12 11 11 11 11 11 12 12
14 11 13 13 13 10 7 8 7 7 7 8 8 8 8 6 6 6 8 8 9 11 11 11 11 11 10 10 10 11 12 13 13 13 13 12 12 12 11 12 12 12 12 13
9 8 11 11 10 8 7 6 6 7 7 7 8 7 6 7 6 7 8 9 10 11 11 11 11 10 10 10 9 11 12 12 12 13 13 12 12 12 12 12 12 13 13 14
9 9 10 10 9 7 7 6 6 5 6 6 6 6 6 5 6 7 8 9 11 11 10 10 10 10 10 10 10 11 12 12 13 13 13 13 12 13 14 14 14 13 13 14
8 9 11 11 8 8 8 6 5 6 7 6 6 6 5 5 6 7 9 10 11 11 10 10 11 11 11 11 12 12 12 13 14 14 14 13 13 13 14 14 13 12 13 13